Tracking 29606 objects as of 19-Sep-2024
HD Live streaming from Space Station
objects crossing your sky now

CORVUS BC1

Track CORVUS BC1 now!
10-day predictions
CORVUS BC1 is classified as:


NORAD ID: 42847
Int'l Code: 2017-042Y
Perigee: 570.3 km
Apogee: 582.9 km
Inclination: 97.4 °
Period: 96.1 minutes
Semi major axis: 6947 km
RCS: Unknown
Launch date: July 14, 2017
Source: United States (US)
Launch site: TYURATAM MISSILE AND SPACE COMPLEX (TTMTR)

Uplink (MHz):
Downlink (MHz): 400.175
Beacon (MHz):
Mode: FM
Call sign:
Status: Inactive

Your satellite tracking list
Your tracking list is empty




NASA's NSSDC Master Catalog

Two Line Element Set (TLE):
1 42847U 17042Y   24262.44105632  .00009086  00000-0  75015-3 0  9994
2 42847  97.3734  82.8482 0009061 105.1463 255.0763 14.99162461391428
Source of the keplerian elements: AFSPC